NOAA-12
1 21263U 91032A   05195.34330499 -.00000004  00000-0  16825-4 0  1515
2 21263 098.7012 185.5493 0012763 354.9856 005.1187 14.25465249736119
NOAA-17
1 27453U 02032A   05195.34682974  .00000040  00000-0  36460-4 0  4487
2 27453 098.6587 268.4481 0011299 340.8155 019.2597 14.23682761158701
NOAA-18
1 28654U 05018A   05195.36567828 -.00000127  00000-0 -46921-4 0   599
2 28654 098.7453 141.6610 0015341 097.7359 262.5568 14.10860914  7742
NOAA-15
1 25338U 98030A   05195.39303026  .00000113  00000-0  67075-4 0  1072
2 25338 098.5108 202.8975 0009504 282.9989 077.0129 14.24525598372623
NOAA-16
1 26536U 00055A   05195.42449595  .00000244  00000-0  15737-3 0  4276
2 26536 099.0153 154.0295 0010595 355.8701 004.2342 14.12256793247903
FENGYUN1
1 25730U 99025A   05195.49208325  .00000114  00000-0  85129-4 0  4625
2 25730 098.6061 196.1849 0014973 026.5743 333.6206 14.11796560318362
RESURS
1 25394U 98043A   05195.75410661  .00000049  00000-0  39848-4 0  1347
2 25394 098.5381 264.1805 0002509 085.2787 274.8678 14.24072693364371
MET-2/21
1 22782U 93055A   05195.96755755  .00000114  00000-0  89961-4 0  2516
2 22782 082.5467 238.9406 0023602 047.8407 312.4752 13.83593108599413
MET-3/5
1 21655U 91056A   05196.05916568  .00000051  00000-0  10000-3 0  8653
2 21655 082.5560 138.9826 0013332 158.6600 201.5081 13.16999957668985
OKEAN-4
1 23317U 94066A   05196.09758241  .00000531  00000-0  63408-4 0  6786
2 23317 082.5369 231.3568 0023828 047.4285 312.8934 14.82188027580040
WO-39
1 26061U 00004A   03303.41062303  .00002252  00000-0  75720-3 0  9734
2 26061 100.1904 047.3011 0034615 281.6926 078.0378 14.38082544197011
NO-45
1 26932U 01043D   05194.73485695 -.00000120  00000-0 -14444-4 0 00768
2 26932 067.0571 159.0801 0006173 243.6023 116.4442 14.29491273197596
OO-38
1 26063U 00004C   05194.74828822  .00000025  00000-0  28899-4 0 03903
2 26063 100.2134 059.6478 0036908 341.1473 018.8341 14.35725518286112
HUBBLE
1 20580U 90037B   05194.80991546  .00001067  00000-0  71197-4 0 03846
2 20580 028.4667 095.3008 0003934 190.8311 169.2193 14.99775093634241
PO-34
1 25520U 98064B   05194.96493289  .00001236  00000-0  52231-4 0 02295
2 25520 028.4566 133.2594 0005547 154.9790 205.1071 15.16348489370656
UARS
1 21701U 91063B   05196.11489292  .00000607  00000-0  62373-4 0  4822
2 21701 056.9795 076.8405 0006061 083.8165 276.3553 15.03864274757693
ISS
1 25544U 98067A   05196.15325675  .00020038  00000-0  15612-3 0  9097
2 25544 051.6443 117.6506 0003695 119.9746 018.2388 15.71704641380086
